Tracking 18852 objects as of 24-Nov-2017
HD Live streaming from Space Station
objects crossing your sky now

FENGYUN 1C DEB

Track FENGYUN 1C DEB now!
10-day predictions


NORAD ID: 31912
Int'l Code: 1999-025CLP
Perigee: 769.4 km
Apogee: 1,610.3 km
Inclination: 98.8 °
Period: 109.0 minutes
Semi major axis: 7560 km
RCS: 0.0133 m2 (small)
Launch date: May 10, 1999
Source: People's Republic of China (PRC)
Launch site: Taiyaun Space Center, China (TSC)

Note: This is SATELLITE DEBRIS
aabbcc
Your satellite tracking list
Your tracking list is empty




NASA's NSSDC Master Catalog

Two Line Element Set (TLE):
1 31912U 99025CLP 17326.60219671  .00000581  00000-0  67572-3 0  9996
2 31912  98.8337 101.2708 0556081 218.6864 137.3172 13.20533333503205
Source of the keplerian elements: AFSPC